• In Hungary
  • List of Countries
  • For 7 days
  • Water Temperature
  • Satellite Maps
  • Weather Map
  • News
  • Weather Widgets
  • user-avatar
    Login

    Hourly Weather Asuan

    Today, 19 January, Friday

    Time Temperature Precipitation Wind Pressure Humidity
    00:00 +15°C° 0 mm 4 mps 745 mmHg 34%
    01:00 +15°C° 0 mm 4 mps 745 mmHg 35%
    02:00 +14°C° 0 mm 4 mps 745 mmHg 36%
    03:00 +14°C° 0 mm 4 mps 745 mmHg 35%
    04:00 +13°C° 0 mm 4 mps 745 mmHg 35%
    05:00 +13°C° 0 mm 4 mps 746 mmHg 35%
    06:00 +13°C° 0 mm 4 mps 746 mmHg 34%
    07:00 +14°C° 0 mm 4 mps 746 mmHg 33%
    08:00 +15°C° 0 mm 5 mps 746 mmHg 31%
    09:00 +16°C° 0 mm 5 mps 747 mmHg 31%
    10:00 +17°C° 0 mm 6 mps 747 mmHg 31%
    11:00 +20°C° 0 mm 6 mps 747 mmHg 31%
    12:00 +21°C° 0 mm 6 mps 747 mmHg 28%
    13:00 +22°C° 0 mm 6 mps 746 mmHg 25%
    14:00 +22°C° 0 mm 5 mps 746 mmHg 21%
    15:00 +22°C° 0 mm 5 mps 746 mmHg 22%
    16:00 +21°C° 0 mm 5 mps 746 mmHg 22%
    17:00 +21°C° 0 mm 5 mps 746 mmHg 23%
    18:00 +19°C° 0 mm 5 mps 747 mmHg 25%
    19:00 +18°C° 0 mm 4 mps 747 mmHg 28%
    20:00 +17°C° 0 mm 4 mps 748 mmHg 31%
    21:00 +15°C° 0 mm 4 mps 748 mmHg 33%
    22:00 +14°C° 0 mm 4 mps 748 mmHg 35%
    23:00 +14°C° 0 mm 4 mps 748 mmHg 38%

    Tomorrow, 20 January, Saturday

    Time Temperature Precipitation Wind Pressure Humidity
    00:00 +13°C° 0 mm 4 mps 748 mmHg 40%
    01:00 +13°C° 0 mm 4 mps 748 mmHg 42%
    02:00 +12°C° 0 mm 4 mps 748 mmHg 43%
    03:00 +12°C° 0 mm 4 mps 748 mmHg 45%
    04:00 +11°C° 0 mm 4 mps 748 mmHg 47%
    05:00 +11°C° 0 mm 3 mps 748 mmHg 48%
    06:00 +11°C° 0 mm 4 mps 748 mmHg 48%
    07:00 +12°C° 0 mm 4 mps 748 mmHg 47%
    08:00 +12°C° 0 mm 4 mps 748 mmHg 46%
    09:00 +14°C° 0 mm 4 mps 748 mmHg 41%
    10:00 +16°C° 0 mm 5 mps 748 mmHg 36%
    11:00 +19°C° 0 mm 5 mps 748 mmHg 31%
    12:00 +20°C° 0 mm 5 mps 747 mmHg 28%
    13:00 +22°C° 0 mm 4 mps 746 mmHg 25%
    14:00 +23°C° 0 mm 4 mps 746 mmHg 23%
    15:00 +23°C° 0 mm 4 mps 745 mmHg 23%
    16:00 +22°C° 0 mm 3 mps 745 mmHg 24%
    17:00 +22°C° 0 mm 3 mps 745 mmHg 24%
    18:00 +21°C° 0 mm 3 mps 745 mmHg 27%
    19:00 +20°C° 0 mm 3 mps 746 mmHg 29%
    20:00 +19°C° 0 mm 3 mps 746 mmHg 32%
    21:00 +18°C° 0 mm 3 mps 746 mmHg 35%
    22:00 +18°C° 0 mm 4 mps 746 mmHg 37%
    23:00 +17°C° 0 mm 4 mps 746 mmHg 40%

    Day after tomorrow, 21 January, Sunday

    Time Temperature Precipitation Wind Pressure Humidity
    00:00 +17°C° 0 mm 4 mps 746 mmHg 46%
    01:00 +15°C° 0 mm 4 mps 746 mmHg 53%
    02:00 +16°C° 0 mm 3 mps 746 mmHg 59%
    03:00 +14°C° 0 mm 3 mps 746 mmHg 63%
    04:00 +14°C° 0 mm 3 mps 745 mmHg 66%
    05:00 +14°C° 0 mm 3 mps 745 mmHg 70%
    06:00 +14°C° 0 mm 3 mps 745 mmHg 68%
    07:00 +16°C° 0 mm 3 mps 746 mmHg 65%
    08:00 +16°C° 0 mm 3 mps 746 mmHg 63%
    09:00 +18°C° 0 mm 4 mps 746 mmHg 54%
    10:00 +20°C° 0 mm 4 mps 746 mmHg 45%
    11:00 +22°C° 0 mm 4 mps 745 mmHg 35%
    12:00 +24°C° 0 mm 3 mps 744 mmHg 32%
    13:00 +25°C° 0 mm 3 mps 744 mmHg 28%
    14:00 +27°C° 0 mm 2 mps 743 mmHg 25%
    15:00 +26°C° 0 mm 2 mps 742 mmHg 25%
    16:00 +25°C° 0 mm 1 mps 742 mmHg 26%
    17:00 +24°C° 0 mm 1 mps 742 mmHg 27%
    18:00 +23°C° 0 mm 1 mps 743 mmHg 29%
    19:00 +21°C° 0 mm 2 mps 743 mmHg 31%
    20:00 +20°C° 0 mm 2 mps 744 mmHg 33%
    21:00 +20°C° 0 mm 2 mps 744 mmHg 33%
    22:00 +19°C° 0 mm 2 mps 744 mmHg 34%
    23:00 +19°C° 0 mm 3 mps 744 mmHg 34%

    22 January, Monday

    Time Temperature Precipitation Wind Pressure Humidity
    00:00 +19°C° 0 mm 3 mps 744 mmHg 35%
    01:00 +18°C° 0 mm 3 mps 743 mmHg 36%
    02:00 +17°C° 0 mm 3 mps 743 mmHg 37%
    03:00 +17°C° 0 mm 3 mps 743 mmHg 39%
    04:00 +17°C° 0 mm 3 mps 743 mmHg 40%
    05:00 +16°C° 0 mm 2 mps 743 mmHg 41%
    06:00 +17°C° 0 mm 2 mps 743 mmHg 39%
    07:00 +18°C° 0 mm 2 mps 744 mmHg 37%
    08:00 +18°C° 0 mm 2 mps 744 mmHg 36%
    09:00 +20°C° 0 mm 3 mps 744 mmHg 31%
    10:00 +22°C° 0 mm 3 mps 744 mmHg 26%
    11:00 +25°C° 0 mm 4 mps 745 mmHg 21%
    12:00 +25°C° 0 mm 4 mps 744 mmHg 19%
    13:00 +26°C° 0 mm 4 mps 743 mmHg 16%
    14:00 +27°C° 0 mm 4 mps 743 mmHg 14%
    15:00 +26°C° 0 mm 4 mps 743 mmHg 14%
    16:00 +26°C° 0 mm 4 mps 743 mmHg 14%
    17:00 +25°C° 0 mm 5 mps 743 mmHg 14%
    18:00 +22°C° 0 mm 5 mps 744 mmHg 16%
    19:00 +21°C° 0 mm 5 mps 744 mmHg 19%
    20:00 +19°C° 0 mm 5 mps 745 mmHg 22%
    21:00 +19°C° 0 mm 5 mps 745 mmHg 26%
    22:00 +18°C° 0 mm 4 mps 745 mmHg 29%
    23:00 +17°C° 0 mm 4 mps 746 mmHg 33%

    23 January, Tuesday

    Time Temperature Precipitation Wind Pressure Humidity
    00:00 +17°C° 0 mm 4 mps 746 mmHg 37%
    01:00 +15°C° 0 mm 4 mps 745 mmHg 41%
    02:00 +15°C° 0 mm 4 mps 745 mmHg 45%
    03:00 +14°C° 0 mm 4 mps 746 mmHg 49%
    04:00 +14°C° 0 mm 4 mps 746 mmHg 52%
    05:00 +13°C° 0 mm 4 mps 746 mmHg 55%
    06:00 +14°C° 0 mm 5 mps 746 mmHg 56%
    07:00 +14°C° 0 mm 5 mps 747 mmHg 57%
    08:00 +15°C° 0 mm 5 mps 747 mmHg 58%
    09:00 +16°C° 0 mm 5 mps 747 mmHg 53%
    10:00 +19°C° 0 mm 5 mps 747 mmHg 48%
    11:00 +20°C° 0 mm 5 mps 747 mmHg 43%
    12:00 +21°C° 0 mm 5 mps 746 mmHg 39%
    13:00 +22°C° 0 mm 5 mps 746 mmHg 35%
    14:00 +23°C° 0 mm 5 mps 745 mmHg 32%
    15:00 +23°C° 0 mm 5 mps 745 mmHg 32%
    16:00 +22°C° 0 mm 5 mps 745 mmHg 32%
    17:00 +22°C° 0 mm 5 mps 745 mmHg 32%
    18:00 +21°C° 0 mm 5 mps 745 mmHg 34%
    19:00 +19°C° 0 mm 5 mps 746 mmHg 37%
    20:00 +18°C° 0 mm 4 mps 746 mmHg 39%
    21:00 +18°C° 0 mm 4 mps 746 mmHg 41%
    22:00 +16°C° 0 mm 5 mps 746 mmHg 42%
    23:00 +15°C° 0 mm 5 mps 746 mmHg 44%

    24 January, Wednesday

    Time Temperature Precipitation Wind Pressure Humidity
    00:00 +15°C° 0 mm 4 mps 746 mmHg 45%
    01:00 +14°C° 0 mm 4 mps 746 mmHg 47%
    02:00 +14°C° 0 mm 4 mps 746 mmHg 48%
    03:00 +13°C° 0 mm 4 mps 746 mmHg 51%
    04:00 +13°C° 0 mm 4 mps 746 mmHg 53%
    05:00 +13°C° 0 mm 4 mps 746 mmHg 55%
    06:00 +13°C° 0 mm 4 mps 746 mmHg 55%
    07:00 +14°C° 0 mm 4 mps 746 mmHg 54%
    08:00 +14°C° 0 mm 4 mps 747 mmHg 53%
    09:00 +17°C° 0 mm 4 mps 747 mmHg 47%
    10:00 +18°C° 0 mm 4 mps 746 mmHg 41%
    11:00 +20°C° 0 mm 4 mps 746 mmHg 34%
    12:00 +21°C° 0 mm 4 mps 745 mmHg 31%
    13:00 +22°C° 0 mm 4 mps 744 mmHg 28%
    14:00 +23°C° 0 mm 4 mps 744 mmHg 24%
    15:00 +23°C° 0 mm 4 mps 744 mmHg 25%
    16:00 +22°C° 0 mm 4 mps 744 mmHg 25%
    17:00 +22°C° 0 mm 4 mps 744 mmHg 26%
    18:00 +21°C° 0 mm 4 mps 744 mmHg 29%
    19:00 +20°C° 0 mm 4 mps 744 mmHg 31%
    20:00 +18°C° 0 mm 4 mps 744 mmHg 34%
    21:00 +18°C° 0 mm 4 mps 744 mmHg 36%
    22:00 +17°C° 0 mm 4 mps 744 mmHg 38%
    23:00 +17°C° 0 mm 4 mps 744 mmHg 40%
    Show more